Wetbulb
46.64 43.18 42.29 42.54 42.98 41.51 40.38 39.52 39.01 41.30 43.13 40.54 40.60 40.91 42.89 45.39 46.88 47.50 47.94 48.36 49.09 49.96 52.18 53.34 54.34 55.86 55.50 56.13 57.51 58.71 59.08 61.17 61.64 60.60 61.23 66.10 66.82 68.62 70.56 71.47 72.24 72.18 73.10 71.47
42.00 39.96 41.90 41.13 40.30 39.07 38.86 38.01 38.44 40.27 41.52 40.20 40.35 40.13 43.31 45.29 46.32 46.67 46.77 47.51 48.16 49.34 50.43 51.86 53.21 52.87 52.60 52.68 53.34 54.07 56.67 60.15 60.18 59.99 61.36 62.65 65.76 68.20 69.73 71.06 71.49 72.59 72.35 72.66
40.05 40.70 40.49 39.00 39.05 38.05 38.98 37.77 37.88 36.83 39.37 41.00 40.44 39.10 41.26 44.82 45.72 45.76 46.82 47.84 48.45 49.22 49.59 50.32 50.35 50.30 51.23 49.94 49.84 50.44 51.72 56.36 61.60 61.24 61.23 62.36 63.47 67.43 68.19 69.14 70.16 71.40 72.27 72.42
41.08 42.13 38.94 38.50 37.85 38.10 35.86 38.91 38.01 37.04 36.54 34.06 40.10 32.78 39.67 42.94 43.18 43.32 44.84 47.01 47.67 47.51 48.04 47.81 48.02 47.59 48.64 48.67 48.52 47.66 48.00 49.48 56.43 60.62 62.46 62.60 62.33 61.54 66.22 68.03 69.20 70.16 71.95 71.69
38.90 38.47 37.68 37.44 38.14 38.48 36.84 39.08 37.77 37.44 36.28 36.34 37.02 34.93 38.47 41.81 39.98 40.64 44.92 45.27 45.90 46.15 45.87 45.02 45.48 46.00 46.51 45.69 46.07 45.23 44.27 44.80 47.31 49.80 56.86 60.68 64.06 64.16 64.37 67.90 68.64 69.78 70.20 69.68
39.52 41.38 39.43 39.00 38.95 38.42 39.14 37.48 38.15 38.26 36.62 31.82 36.72 35.36 36.38 38.39 38.49 41.46 43.74 43.83 44.06 44.09 44.79 45.27 45.98 46.30 45.43 44.74 43.26 42.97 41.37 41.56 42.16 44.11 48.75 52.54 57.16 65.21 64.54 65.75 67.42 67.75 68.88 69.19
36.55 37.28 39.22 39.63 36.81 39.45 38.59 36.61 31.86 31.24 31.51 31.64 36.79 33.17 35.87 39.03 42.07 42.18 41.35 42.18 43.33 43.90 43.47 43.24 43.62 44.05 44.70 43.43 41.77 38.99 38.42 39.02 40.11 41.38 44.26 46.50 49.79 54.79 64.89 66.59 66.76 66.91 67.67 67.23
33.47 31.24 37.48 39.83 38.09 36.24 35.47 34.97 30.65 24.79 28.24 31.79 35.62 30.73 35.41 40.63 43.90 43.67 43.32 43.52 43.38 43.61 43.89 43.78 43.39 42.72 42.45 42.77 41.16 39.70 35.88 37.19 38.80 39.60 41.65 45.49 46.08 48.98 61.12 65.69 66.13 65.93 62.63 61.07
34.81 33.91 38.55 38.32 38.72 37.31 35.99 32.69 37.08 30.50 32.34 28.19 32.58 35.89 38.59 40.70 41.37 42.27 40.07 40.49 39.81 42.02 42.92 42.72 42.35 40.94 39.61 39.10 39.88 39.24 36.37 35.31 36.90 37.98 39.77 43.12 43.49 45.98 50.25 55.94 59.66 59.82 59.99 61.19
38.17 32.56 37.15 37.53 38.32 38.17 36.13 38.69 30.74 32.33 21.75 22.81 30.57 31.28 33.14 36.97 37.42 39.44 38.49 38.64 39.08 41.61 41.81 41.97 40.45 39.08 39.01 38.41 38.52 38.87 37.58 34.66 35.57 36.31 37.75 40.00 42.64 44.72 47.64 51.45 53.04 55.85 57.49 57.98
38.77 35.72 34.09 36.24 34.19 34.24 34.64 33.05 33.32 33.74 32.42 25.44 24.50 31.60 39.12 37.24 38.26 38.72 39.93 40.68 39.80 40.52 41.59 41.54 40.19 40.60 39.23 37.96 36.72 37.21 36.09 35.45 34.27 35.06 37.73 38.65 39.82 42.41 44.29 47.40 50.58 52.45 54.39 55.18
38.86 35.86 31.47 32.91 37.36 38.40 37.22 35.16 34.62 28.45 26.41 30.27 28.31 28.29 40.94 40.83 40.10 39.80 39.72 40.49 40.41 41.43 41.82 41.61 40.80 39.76 36.88 35.88 35.67 34.13 34.99 34.09 34.30 34.65 37.47 37.64 36.76 39.37 42.28 45.45 47.99 51.05 52.18 53.15
38.06 33.60 28.82 29.17 34.12 36.16 33.67 35.67 35.85 33.70 31.65 26.47 24.30 28.60 40.77 38.91 38.13 39.51 39.32 39.66 40.16 40.76 41.19 40.64 39.88 38.03 34.93 34.93 35.07 33.67 34.30 34.70 34.52 35.32 35.70 37.10 36.85 35.89 39.58 41.90 45.46 47.77 49.50 50.89
39.75 34.50 31.88 28.52 31.04 35.50 30.90 33.80 35.20 33.91 28.25 29.21 29.81 31.73 35.96 37.72 37.25 37.92 38.06 38.12 39.25 39.34 39.44 39.21 37.90 38.02 37.22 36.33 35.20 34.57 34.37 34.70 34.74 34.32 34.81 35.98 36.25 36.69 38.44 41.02 41.80 44.04 46.89 47.70
37.13 30.08 32.88 33.07 33.66 33.70 33.36 33.10 33.57 31.70 32.49 28.32 31.30 31.98 35.32 36.35 37.01 36.65 37.99 37.36 37.36 37.46 37.53 37.21 36.42 36.48 36.81 35.81 35.45 33.76 33.39 33.43 34.10 33.59 34.49 35.26 36.42 37.32 37.77 39.03 40.40 41.60 42.31 45.13
37.51 31.48 31.72 29.85 33.29 33.28 31.26 33.44 33.86 33.84 33.94 33.76 33.57 32.46 38.53 38.27 38.77 37.14 37.21 35.08 35.14 35.77 35.98 36.10 35.94 35.55 35.56 34.85 34.70 33.42 32.22 33.05 33.29 32.47 32.33 34.61 35.32 35.51 36.15 37.64 39.91 40.02 40.77 41.96
35.19 33.11 30.32 26.85 32.42 32.21 27.72 32.47 33.81 34.11 33.93 32.38 28.83 34.40 37.20 35.60 35.02 35.41 35.20 34.41 34.13 35.05 35.18 35.01 35.15 34.75 35.02 34.63 35.15 33.16 32.72 33.70 33.00 32.24 31.68 33.12 33.82 34.06 34.56 35.80 37.30 38.31 38.84 39.57
34.47 33.28 32.10 27.83 29.67 20.22 32.07 38.06 36.70 32.23 34.57 36.42 34.63 34.51 34.78 35.65 36.24 37.01 35.66 35.44 34.69 35.07 34.79 34.93 35.12 34.82 35.24 35.44 35.32 34.17 34.41 33.34 32.47 31.58 30.87 31.82 32.61 33.12 34.55 35.48 35.31 36.48 37.87 37.35
38.05 34.28 29.50 25.81 26.33 30.36 31.83 34.26 33.17 32.08 32.01 36.15 33.64 34.56 35.43 37.02 37.45 34.25 36.61 36.60 35.39 35.41 35.78 35.41 35.67 35.44 35.49 35.24 34.90 34.07 33.97 33.62 31.71 30.70 30.66 31.31 32.61 32.14 32.40 32.62 33.44 34.88 35.63 36.90
36.39 36.05 31.58 28.81 23.79 21.29 32.28 35.88 37.69 36.77 27.07 36.19 35.32 33.68 33.41 35.76 30.62 33.99 36.11 36.02 36.01 36.31 35.84 35.11 35.19 35.59 35.22 35.27 34.78 33.70 33.23 32.72 30.74 29.98 31.22 32.59 32.76 32.38 32.04 33.08 33.88 34.75 34.94 35.10
29.25 30.55 27.39 28.08 26.19 29.02 36.60 37.16 38.29 25.65 28.58 35.52 35.27 35.12 33.08 31.82 33.51 35.54 35.83 34.39 35.75 35.36 35.18 35.23 34.82 34.20 34.55 35.32 34.33 32.51 32.85 30.99 31.06 31.23 32.01 32.34 32.38 32.44 33.32 33.24 34.07 33.30 33.75 33.17
28.87 27.70 27.73 28.97 25.80 22.64 38.75 36.42 30.48 35.06 35.99 35.41 35.04 34.57 32.52 34.71 35.70 34.91 34.15 34.78 35.00 34.10 34.38 34.50 33.21 33.27 34.45 34.78 33.23 31.94 31.52 31.67 31.65 31.36 31.00 31.12 31.56 31.83 31.88 31.67 31.73 31.91 31.37 30.11
29.00 33.21 31.98 31.61 32.30 37.98 39.32 38.34 39.18 38.00 36.36 34.76 34.97 35.14 35.72 35.01 33.54 33.48 33.77 34.18 34.24 33.96 33.63 33.78 32.61 32.47 33.36 33.49 32.52 30.53 30.62 30.80 29.99 29.50 28.61 29.09 30.18 29.95 29.63 28.88 29.20 28.70 29.08 28.73
35.33 37.78 33.76 32.27 35.14 37.33 37.81 38.42 38.57 37.73 35.94 36.21 37.02 36.50 35.34 33.07 32.64 32.51 33.16 33.54 33.47 33.41 32.07 32.20 31.53 30.90 30.40 31.79 31.17 30.87 29.77 29.53 28.71 28.35 29.00 29.89 29.62 29.31 29.74 30.17 30.47 29.89 28.76 27.44
37.01 36.75 34.06 32.33 35.69 36.73 37.46 38.13 36.93 35.97 36.37 36.08 36.40 34.97 32.96 32.17 31.83 31.48 31.37 31.58 31.60 30.80 30.63 30.21 29.36 28.93 28.89 29.90 29.60 29.85 28.88 28.28 26.66 27.88 29.28 29.40 29.25 28.71 29.07 29.74 29.98 29.28 29.96 27.52
38.07 35.49 32.89 33.18 37.95 36.73 37.78 37.93 37.08 35.22 34.80 35.72 34.29 33.40 32.98 31.92 30.46 30.30 29.59 30.18 28.41 27.08 27.74 26.86 26.54 26.52 26.79 27.37 27.39 27.57 27.56 26.95 25.95 25.66 27.10 27.72 28.01 28.41 28.60 28.17 27.96 29.95 29.00 28.31
MSLP
1011.13 1010.58 1009.65 1009.92 1010.12 1010.47 1010.39 1009.75 1008.86 1008.58 1008.68 1009.40 1008.43 1007.94 1007.29 1007.44 1007.70 1008.37 1008.98 1009.60 1010.00 1010.62 1010.80 1011.07 1011.06 1011.58 1011.82 1011.73 1011.02 1010.43 1009.58 1008.98 1008.17 1007.19 1006.72 1006.17 1006.10 1005.94 1005.89 1005.98 1006.06 1006.28 1006.55 1007.90
1011.08 1010.15 1010.81 1011.25 1011.53 1011.41 1011.04 1010.41 1009.72 1009.48 1009.39 1009.69 1008.41 1007.52 1007.13 1008.21 1009.26 1009.96 1010.59 1010.91 1011.30 1011.64 1011.94 1012.00 1012.45 1013.04 1013.35 1013.04 1012.77 1012.08 1011.15 1009.40 1008.67 1007.63 1006.36 1005.70 1005.04 1004.78 1004.79 1005.00 1005.23 1005.59 1005.93 1006.54
1010.43 1010.62 1011.72 1011.73 1011.78 1011.57 1011.10 1010.64 1010.82 1010.76 1010.40 1009.40 1007.85 1006.92 1007.16 1008.55 1009.65 1010.67 1011.52 1011.96 1012.73 1012.93 1013.41 1013.58 1014.02 1014.13 1014.15 1014.00 1013.90 1013.55 1012.67 1011.15 1009.07 1007.99 1006.83 1005.63 1004.96 1004.33 1004.16 1004.16 1004.28 1004.51 1004.96 1005.48
1010.59 1010.78 1012.07 1012.06 1011.79 1012.17 1011.37 1012.03 1011.92 1011.19 1010.42 1008.70 1008.39 1006.96 1006.88 1008.03 1008.98 1010.56 1012.28 1012.86 1014.63 1015.35 1015.43 1015.63 1015.46 1015.29 1015.04 1015.06 1015.05 1014.84 1014.09 1012.75 1010.68 1008.92 1006.71 1005.70 1004.76 1003.78 1003.16 1003.36 1003.52 1003.80 1004.13 1004.65
1010.68 1011.79 1012.16 1012.06 1012.11 1012.87 1011.97 1012.88 1012.31 1011.44 1010.36 1009.37 1008.15 1007.07 1006.41 1008.67 1009.59 1011.34 1013.20 1015.43 1015.99 1016.55 1016.89 1016.96 1016.90 1016.76 1016.32 1016.35 1015.84 1015.54 1015.06 1013.85 1012.55 1011.32 1009.31 1007.57 1005.31 1003.74 1003.34 1002.31 1002.60 1003.03 1003.61 1003.97
1011.81 1012.54 1012.79 1012.52 1013.47 1014.05 1013.63 1013.10 1011.90 1011.04 1009.98 1008.42 1006.89 1007.68 1007.27 1008.60 1011.06 1012.67 1014.69 1016.43 1017.22 1017.77 1017.70 1017.74 1017.80 1017.40 1016.86 1016.70 1016.40 1016.13 1015.49 1014.52 1013.69 1012.59 1010.89 1009.31 1007.17 1004.35 1002.81 1001.84 1001.65 1002.59 1003.24 1003.70
1012.52 1012.76 1013.35 1013.70 1013.75 1013.88 1013.43 1012.53 1010.67 1009.57 1008.84 1007.68 1008.45 1008.84 1008.70 1010.20 1012.36 1014.84 1016.25 1017.31 1017.92 1018.18 1018.40 1018.43 1018.05 1017.54 1017.04 1016.76 1016.64 1016.34 1016.00 1015.15 1014.36 1013.44 1012.08 1010.25 1008.23 1005.96 1003.41 1002.01 1001.62 1002.43 1002.83 1003.16
1011.33 1012.28 1013.03 1013.49 1013.75 1013.23 1013.14 1013.36 1012.02 1010.64 1009.39 1008.63 1009.07 1008.43 1008.82 1011.00 1013.23 1015.72 1017.09 1017.56 1018.21 1018.22 1018.38 1018.30 1018.41 1018.52 1018.18 1017.58 1017.29 1016.93 1016.61 1015.94 1014.83 1014.15 1012.88 1010.98 1009.29 1007.43 1004.66 1002.45 1002.29 1002.46 1003.11 1003.61
1010.64 1011.62 1013.37 1013.99 1014.35 1014.51 1013.67 1013.62 1013.58 1013.24 1012.21 1011.35 1009.62 1008.59 1009.84 1011.34 1013.92 1015.27 1017.27 1018.54 1019.11 1019.05 1018.81 1018.64 1018.90 1019.02 1018.83 1018.47 1018.03 1017.80 1017.09 1016.51 1015.59 1014.44 1013.71 1011.79 1010.17 1008.52 1006.86 1004.96 1003.19 1003.17 1003.50 1003.30
1011.61 1012.12 1013.29 1014.23 1014.90 1014.97 1014.62 1014.34 1014.26 1014.24 1013.43 1011.62 1010.01 1009.89 1010.68 1012.62 1014.85 1016.05 1017.07 1018.08 1018.86 1018.79 1018.97 1018.94 1019.30 1019.34 1019.20 1019.06 1018.72 1018.24 1017.57 1016.82 1016.39 1015.29 1014.44 1013.09 1010.76 1009.81 1008.32 1006.86 1004.85 1003.69 1003.84 1003.99
1012.55 1012.81 1013.39 1014.23 1014.07 1013.45 1014.65 1014.80 1014.90 1014.50 1013.91 1013.18 1012.05 1011.45 1013.09 1014.28 1015.50 1016.24 1017.06 1017.87 1018.40 1018.54 1018.51 1018.69 1019.09 1019.19 1019.47 1019.35 1019.13 1018.54 1017.93 1017.23 1016.87 1015.79 1014.85 1013.37 1011.72 1011.20 1008.84 1008.05 1006.39 1004.97 1004.67 1004.68
1013.40 1013.46 1012.96 1013.41 1013.59 1014.33 1014.02 1014.50 1015.14 1015.56 1015.02 1014.83 1014.67 1013.29 1013.34 1014.73 1016.12 1016.99 1017.53 1017.97 1018.29 1018.39 1018.27 1018.52 1018.85 1019.09 1019.69 1019.60 1019.33 1019.11 1018.50 1017.88 1017.12 1016.37 1014.69 1014.16 1013.75 1012.24 1010.45 1009.28 1007.59 1006.43 1005.92 1005.52
1014.38 1013.87 1013.11 1013.78 1014.46 1014.65 1014.34 1014.67 1015.36 1016.35 1016.81 1015.81 1015.28 1013.83 1014.62 1016.35 1017.07 1017.30 1017.84 1018.13 1018.27 1018.18 1018.14 1018.46 1018.70 1019.18 1019.38 1019.29 1019.19 1018.98 1018.78 1018.08 1017.41 1016.49 1015.12 1014.57 1013.54 1012.85 1011.88 1009.82 1008.50 1007.92 1007.21 1006.48
1014.99 1014.28 1013.49 1012.89 1012.85 1012.71 1014.15 1014.41 1014.89 1015.32 1015.63 1014.94 1014.22 1013.74 1013.93 1015.38 1016.49 1017.50 1018.09 1018.53 1018.49 1018.41 1018.35 1018.49 1018.69 1018.90 1018.98 1019.02 1018.97 1018.76 1018.50 1018.27 1017.56 1016.59 1015.36 1014.34 1013.40 1011.81 1010.83 1010.66 1009.96 1009.59 1008.48 1007.68
1015.69 1015.21 1014.59 1014.13 1014.05 1013.87 1013.83 1014.21 1014.62 1014.91 1015.17 1015.00 1014.53 1014.29 1014.79 1016.38 1017.15 1018.31 1018.58 1018.80 1018.90 1018.70 1018.82 1018.85 1018.85 1018.81 1018.63 1018.63 1018.48 1018.59 1018.37 1018.01 1017.68 1016.72 1015.52 1014.30 1013.77 1012.60 1011.64 1010.76 1010.26 1009.86 1009.65 1008.84
1016.02 1015.67 1015.42 1014.83 1014.40 1014.25 1014.29 1014.21 1014.36 1014.53 1014.62 1014.63 1014.89 1014.96 1016.33 1017.01 1017.48 1018.27 1018.72 1019.47 1019.48 1019.34 1019.26 1019.19 1019.15 1019.09 1018.85 1018.77 1018.40 1018.40 1018.36 1017.69 1017.38 1016.88 1016.10 1015.16 1014.59 1013.47 1012.99 1012.43 1011.17 1010.56 1010.54 1009.74
1016.08 1015.79 1015.69 1014.46 1014.36 1014.60 1014.31 1013.78 1013.97 1014.49 1015.10 1016.19 1016.26 1016.32 1017.21 1017.80 1018.42 1019.03 1019.66 1020.04 1019.97 1019.71 1019.66 1019.58 1019.48 1019.45 1019.20 1018.93 1018.62 1018.49 1018.20 1017.77 1017.31 1016.90 1016.42 1015.42 1014.69 1014.11 1013.68 1013.05 1012.26 1011.58 1011.13 1010.30
1016.06 1015.90 1015.58 1014.72 1015.14 1014.74 1013.99 1014.12 1014.44 1015.28 1016.00 1016.28 1017.06 1017.76 1018.40 1018.64 1018.98 1019.65 1020.48 1020.24 1020.14 1020.07 1020.04 1019.92 1019.87 1019.70 1019.40 1019.15 1018.90 1018.82 1018.18 1017.84 1017.48 1016.97 1016.45 1015.89 1015.26 1014.21 1013.39 1012.88 1012.31 1011.46 1010.56 1009.64
1015.91 1015.86 1015.67 1015.37 1014.76 1014.40 1014.79 1015.16 1015.48 1015.66 1016.03 1017.04 1017.95 1018.42 1018.83 1018.84 1018.99 1020.26 1020.46 1020.54 1020.58 1020.47 1020.36 1020.28 1020.21 1019.97 1019.65 1019.29 1019.09 1018.67 1018.27 1017.92 1017.72 1017.42 1017.00 1016.26 1015.44 1014.69 1014.02 1013.33 1012.71 1012.21 1011.51 1010.48
1016.26 1016.45 1016.31 1015.81 1015.03 1014.11 1014.41 1015.66 1016.51 1017.04 1017.11 1017.98 1018.81 1019.36 1019.76 1019.66 1019.01 1019.46 1020.62 1020.92 1020.63 1020.54 1020.51 1020.40 1020.33 1020.01 1019.68 1019.53 1019.51 1019.16 1018.60 1018.20 1017.99 1017.70 1016.95 1016.22 1015.81 1015.42 1014.59 1013.85 1013.01 1012.21 1011.42 1010.75
1016.47 1016.76 1016.46 1015.99 1015.44 1014.92 1015.36 1016.39 1017.08 1017.67 1018.67 1019.09 1019.76 1019.99 1020.60 1020.77 1020.95 1020.99 1021.03 1021.00 1020.84 1020.73 1020.55 1020.57 1020.38 1020.04 1019.84 1019.68 1019.60 1019.32 1018.86 1018.93 1018.86 1018.45 1017.67 1016.93 1016.28 1015.45 1014.82 1014.60 1013.91 1013.19 1012.61 1012.43
1016.09 1016.44 1016.27 1016.22 1015.86 1015.67 1015.98 1016.99 1017.53 1018.40 1019.29 1019.90 1020.38 1020.74 1021.16 1021.17 1021.02 1021.11 1021.08 1020.76 1020.72 1020.75 1020.59 1020.54 1020.51 1020.27 1020.04 1019.87 1019.86 1019.52 1019.19 1019.44 1019.36 1018.95 1018.28 1017.74 1017.28 1016.65 1016.06 1015.45 1014.63 1013.92 1013.57 1013.01
1015.98 1016.05 1015.93 1015.87 1016.02 1016.35 1016.60 1017.37 1018.58 1019.08 1019.59 1020.40 1020.72 1021.14 1021.08 1021.05 1021.26 1021.33 1021.12 1020.93 1020.99 1021.03 1020.98 1021.02 1020.91 1020.53 1020.35 1020.29 1020.20 1019.80 1019.97 1020.06 1019.62 1019.03 1018.60 1018.17 1017.59 1016.93 1016.33 1015.43 1014.66 1014.32 1013.83 1013.30
1015.36 1015.69 1016.45 1016.70 1016.79 1016.75 1017.70 1018.40 1019.10 1019.80 1020.34 1020.72 1020.90 1021.05 1021.35 1021.54 1021.77 1021.66 1021.49 1021.34 1021.32 1021.48 1021.71 1021.76 1021.49 1021.10 1020.90 1020.81 1020.70 1020.53 1020.46 1020.24 1019.81 1019.47 1018.93 1018.13 1017.45 1017.01 1016.30 1015.60 1015.05 1014.57 1014.35 1014.15
1014.34 1015.37 1015.85 1016.67 1016.91 1017.42 1018.07 1018.66 1019.61 1020.32 1020.81 1020.93 1021.22 1021.56 1021.90 1022.10 1022.09 1022.23 1022.19 1022.22 1022.43 1022.69 1022.74 1022.84 1022.57 1022.29 1022.01 1021.73 1021.33 1020.99 1020.87 1020.63 1020.25 1019.83 1019.13 1018.48 1018.01 1017.35 1016.75 1016.16 1015.58 1015.24 1015.13 1015.14
1014.05 1014.55 1015.46 1015.33 1016.56 1017.42 1017.78 1019.23 1020.03 1020.70 1020.99 1021.25 1021.63 1021.81 1022.27 1022.59 1022.80 1023.07 1023.20 1023.48 1023.98 1024.20 1024.14 1024.03 1023.92 1023.60 1023.19 1022.73 1022.27 1022.02 1021.86 1021.53 1020.94 1020.23 1019.44 1018.68 1018.03 1017.31 1016.83 1016.31 1015.76 1015.47 1015.13 1014.81
Wind_Speed
8 8 12 11 10 10 10 12 13 13 9 9 12 16 14 7 10 10 7 9 11 12 15 19 18 22 25 24 24 24 20 16 13 10 10 11 12 11 12 12 15 16 14 16
7 13 7 2 4 8 11 12 13 8 5 11 15 17 14 10 8 10 10 12 14 16 17 17 22 22 23 24 25 25 27 23 16 13 12 9 10 11 11 12 14 15 16 17
12 7 3 4 7 9 13 10 10 12 15 19 15 15 14 12 8 8 9 13 15 20 23 23 23 23 22 23 24 25 27 26 24 19 14 13 10 11 10 10 10 14 18 17
11 11 8 9 10 4 13 4 7 12 12 11 14 10 10 14 9 7 10 15 22 20 21 21 22 23 23 22 21 22 24 25 25 29 18 17 14 14 12 12 11 12 16 18
2 8 9 10 6 1 7 6 12 15 15 16 17 11 4 7 2 9 17 18 18 19 18 19 20 19 20 21 21 20 22 24 25 26 25 18 21 13 13 11 15 14 13 15
5 3 3 5 2 6 9 13 17 17 13 10 2 3 7 6 9 9 13 14 15 15 16 17 18 18 17 17 19 20 21 20 22 24 24 23 24 22 15 15 12 11 10 11
8 9 4 5 9 9 12 12 8 8 9 8 9 5 8 12 13 13 11 10 10 11 13 15 19 20 20 21 20 18 22 20 20 22 22 22 22 25 22 19 11 13 10 10
10 10 14 9 9 6 3 7 7 8 7 11 3 6 5 11 11 15 12 10 9 12 12 14 17 17 19 21 20 20 19 21 19 21 22 20 21 15 17 15 12 10 5 3
8 6 7 4 3 5 8 7 8 7 12 8 9 7 7 13 10 12 13 9 11 14 15 17 17 16 18 19 20 19 18 19 18 19 19 18 18 20 17 16 5 6 5 4
4 5 10 8 6 5 9 5 5 6 5 9 7 6 5 9 8 9 10 10 10 13 14 15 15 16 16 17 18 18 18 17 18 17 17 15 17 18 17 12 11 7 5 4
5 7 9 6 12 9 7 8 6 7 6 6 9 2 7 6 5 10 10 10 12 14 14 13 14 13 17 16 17 19 17 17 17 15 16 19 15 16 16 12 10 10 8 7
6 6 8 13 4 6 8 7 6 5 4 6 9 14 6 11 11 9 12 11 13 13 14 14 14 14 15 16 16 17 16 16 15 14 13 15 14 14 13 15 14 13 9 6
8 7 7 7 8 7 9 9 8 7 4 10 9 9 13 8 5 8 10 11 13 15 16 15 15 7 7 9 10 14 13 13 14 15 12 13 14 11 11 15 13 13 13 11
5 7 12 8 7 6 15 12 12 12 10 11 11 15 11 14 12 12 11 11 14 15 17 16 15 14 7 8 8 12 12 12 12 15 13 14 15 15 13 15 16 15 12 12
6 8 12 11 4 4 7 11 13 15 15 15 16 17 12 10 11 8 12 12 15 16 17 16 16 16 16 16 16 15 16 14 15 15 14 16 16 14 15 16 14 13 12 11
9 5 4 8 10 10 11 14 16 15 15 14 15 14 6 10 12 13 13 12 15 16 16 16 16 17 17 17 16 16 16 16 14 15 16 14 15 15 14 14 12 10 11 12
10 6 7 10 8 10 13 16 12 10 2 5 10 11 12 11 12 11 10 10 13 14 15 15 15 15 15 16 16 17 16 16 16 14 16 17 16 14 14 13 13 12 10 10
8 8 3 4 5 13 4 5 3 2 8 10 5 7 7 9 8 5 5 11 13 14 14 14 14 14 15 15 15 15 15 15 16 16 16 16 16 18 17 15 15 15 13 12
7 7 5 5 12 6 8 7 5 5 4 4 4 5 7 8 10 3 6 10 11 12 12 12 13 14 13 14 16 16 15 14 15 16 16 16 16 16 16 15 14 12 12 12
7 6 6 8 10 8 10 9 4 3 10 8 4 4 5 9 7 5 11 11 11 12 11 13 14 13 13 13 13 15 14 15 16 17 16 16 15 14 15 16 16 14 13 13
9 8 10 10 6 1 9 8 5 8 4 6 4 2 2 5 5 10 10 9 10 12 12 13 13 13 13 13 14 14 14 15 15 15 15 15 15 16 15 14 13 13 13 12
10 8 7 9 6 9 10 8 6 5 5 3 3 2 3 6 7 7 8 10 11 12 13 12 12 13 13 13 13 15 15 16 16 15 15 14 14 11 11 14 12 13 12 12
6 4 3 2 1 7 5 3 4 1 4 4 3 3 4 6 6 9 9 9 9 11 11 11 12 13 12 13 14 15 15 15 16 16 15 14 14 13 12 12 11 10 11 10
8 5 1 3 7 8 5 4 4 3 3 3 2 2 4 5 6 8 9 10 10 11 11 12 14 14 14 14 14 14 15 15 16 14 13 11 11 12 11 9 8 8 8 10
6 9 7 4 5 6 5 6 5 4 4 3 1 3 4 5 6 8 9 10 11 11 12 12 13 13 14 15 15 15 15 15 15 13 11 10 9 10 10 8 8 8 7 8
6 8 6 1 8 5 7 7 7 7 6 2 2 1 3 5 8 8 9 9 11 11 12 12 13 14 15 15 15 14 14 14 14 13 10 10 9 9 8 9 8 10 10 12
Wind_Direction
185 264 239 17 25 340 309 294 285 287 354 317 297 295 300 35 45 48 48 22 13 354 358 1 358 3 1 350 346 342 328 318 312 289 263 242 236 236 228 231 232 220 206 196
230 241 66 22 329 281 280 281 278 310 236 312 283 296 277 86 89 60 27 15 3 357 349 356 11 359 357 349 348 340 335 324 306 297 292 256 255 239 236 225 225 227 219 200
252 68 115 206 227 260 265 248 301 310 310 277 269 288 120 142 131 43 22 12 358 8 3 360 356 356 351 355 350 343 339 333 320 300 289 279 263 248 247 234 240 221 221 214
250 133 226 234 246 268 280 68 273 283 289 291 339 281 253 148 144 44 11 20 19 5 359 357 353 355 349 355 353 348 343 341 339 335 306 285 278 266 228 230 229 233 220 220
142 184 208 233 257 255 286 314 280 274 276 280 261 244 163 164 121 25 41 25 7 8 359 358 356 354 358 354 351 351 346 346 344 342 333 317 295 262 261 234 226 223 229 224
339 44 272 325 164 263 312 281 259 248 249 256 233 238 282 109 51 29 37 26 15 3 355 355 351 348 355 360 358 350 350 345 345 339 336 331 319 289 259 248 228 227 218 222
193 210 159 217 234 196 240 270 280 228 205 256 123 242 276 91 71 67 41 31 7 6 358 346 346 345 349 356 357 359 347 342 346 338 334 334 332 329 289 259 239 227 224 217
195 191 194 166 253 323 290 295 289 294 299 304 171 252 111 86 85 96 49 25 3 360 352 349 348 344 343 347 354 353 355 336 342 343 334 334 338 340 321 264 255 243 186 166
219 181 113 220 182 269 133 245 29 298 255 269 249 217 213 147 82 51 52 352 349 336 344 347 348 349 347 344 347 346 352 346 336 348 332 336 339 345 337 326 56 52 46 51
201 200 185 154 219 203 273 35 208 182 261 271 283 272 267 64 13 354 17 2 341 337 343 340 344 339 346 343 341 344 350 354 332 341 337 324 342 342 334 340 351 31 41 28
204 246 153 169 209 228 168 225 238 307 277 290 304 42 61 63 18 6 3 344 342 338 335 345 339 338 345 341 345 341 350 352 339 334 335 336 348 341 343 343 343 14 21 5
184 236 200 212 87 296 272 236 196 263 225 231 281 277 89 51 29 6 350 337 335 329 336 345 337 350 337 339 342 342 346 346 348 325 341 340 333 340 336 332 360 3 3 359
167 213 191 209 204 203 227 206 179 205 273 264 276 286 104 71 283 7 344 343 332 333 336 339 340 352 319 332 340 342 341 338 346 331 345 334 343 330 334 341 352 356 357 0
255 260 245 275 4 167 204 221 205 213 245 277 269 276 329 17 356 359 343 337 328 329 336 337 340 337 333 340 340 344 344 342 341 338 344 349 342 351 343 349 359 345 352 354
225 248 236 259 238 244 208 212 218 233 247 260 279 297 0 357 356 360 324 336 327 332 335 336 339 339 340 345 342 346 345 350 341 347 344 356 348 352 351 347 333 345 351 348
207 242 332 255 247 244 245 239 245 251 260 273 285 295 11 351 336 345 335 339 329 332 335 340 340 343 340 342 343 344 342 344 349 350 344 350 352 352 350 335 339 343 330 339
189 221 207 253 192 215 242 233 227 236 274 297 277 326 347 333 338 335 343 335 329 333 340 340 341 341 340 339 344 345 341 343 344 353 348 348 348 349 348 340 340 339 337 334
195 217 220 275 174 234 115 47 83 225 251 245 257 292 312 318 328 354 0 327 338 336 339 338 338 339 337 339 346 340 339 345 345 350 348 347 348 345 344 346 346 343 344 356
212 211 215 230 225 150 171 189 218 241 265 174 252 268 307 316 300 146 347 344 331 329 332 334 337 333 335 345 345 338 343 345 351 349 345 342 341 343 343 347 342 344 340 345
196 268 266 215 257 251 77 113 138 138 257 148 215 268 297 314 295 94 353 335 325 330 332 335 333 331 337 347 349 336 342 350 351 345 337 341 342 343 343 345 342 348 345 353
193 214 221 237 244 302 142 141 169 236 86 160 249 248 331 310 313 310 320 313 327 329 331 335 336 331 340 344 347 338 343 355 345 339 337 343 341 341 344 344 343 347 351 346
190 197 199 242 226 243 149 147 235 84 134 178 194 236 276 280 295 309 312 325 332 334 333 339 334 335 338 344 345 340 350 347 344 338 340 341 342 343 345 345 347 350 352 346
206 221 255 178 66 124 110 78 89 106 150 177 207 238 276 295 321 318 326 325 332 331 338 341 335 331 341 344 345 339 348 343 341 341 339 338 340 345 345 344 351 348 353 351
203 150 231 185 190 175 142 124 158 140 163 204 237 316 305 325 321 320 331 331 336 345 345 340 334 337 338 344 341 343 346 344 340 339 329 333 340 337 344 343 345 348 351 352
147 177 184 214 208 125 203 161 175 161 181 199 149 351 350 332 330 338 329 340 344 344 343 344 340 340 339 340 340 345 347 344 338 332 328 339 338 339 339 343 344 347 354 341
189 196 191 277 171 176 151 143 161 168 193 164 304 299 352 344 337 340 337 352 356 344 346 345 343 340 339 339 339 344 344 340 334 330 331 334 332 340 341 338 338 341 344 342